This is the latest recevied weather packets stored in our database for station/object W8CEN. If no packets are shown the sender has not sent any weather packets the latest 10 day(s).
| Time | Temp. | Humidity | Pressure | Rain* | Wind** | Luminosity | Snow |
|---|---|---|---|---|---|---|---|
| 1778004374 | 13.89° C | 78% | 986.4 hPa | 1.27 mm | - | 97 W/m² | - |
| 1778004072 | 13.89° C | 75% | 986.2 hPa | 1.27 mm | - | 78 W/m² | - |
| 1778003767 | 14.44° C | 73% | 986.1 hPa | 0 mm | - | 91 W/m² | - |
| 1778003464 | 14.44° C | 73% | 986.1 hPa | 0 mm | - | 119 W/m² | - |
| 1778003161 | 15° C | 71% | 986.2 hPa | 0 mm | - | 111 W/m² | - |
| 1778002857 | 15° C | 69% | 986.1 hPa | 0 mm | - | 135 W/m² | - |
| 1778002554 | 15° C | 67% | 986.1 hPa | 0 mm | - | 129 W/m² | - |
| 1778002250 | 15.56° C | 69% | 986.1 hPa | 0 mm | - | 111 W/m² | - |
| 1778001948 | 15.56° C | 69% | 986.3 hPa | 0 mm | - | 130 W/m² | - |
| 1778001644 | 15.56° C | 67% | 986.3 hPa | 0 mm | - | 154 W/m² | - |
| 1778001339 | 15° C | 70% | 986.3 hPa | 0 mm | - | 117 W/m² | - |
| 1778001036 | 15.56° C | 71% | 986.5 hPa | 0 mm | - | 78 W/m² | - |
| 1778000733 | 15.56° C | 72% | 986.2 hPa | 0 mm | - | 85 W/m² | - |
| 1778000430 | 15.56° C | 73% | 986.3 hPa | 0 mm | - | 100 W/m² | - |
| 1778000125 | 15.56° C | 73% | 986.2 hPa | 0 mm | - | 100 W/m² | - |
| 1777999821 | 15.56° C | 72% | 986.2 hPa | 0 mm | - | 75 W/m² | - |
| 1777999517 | 15.56° C | 73% | 986.4 hPa | 0 mm | - | 60 W/m² | - |
| 1777999215 | 16.11° C | 73% | 986.4 hPa | 0 mm | - | 55 W/m² | - |
| 1777998913 | 16.11° C | 72% | 986.3 hPa | 0 mm | - | 70 W/m² | - |
| 1777998610 | 16.11° C | 71% | 986.3 hPa | 0 mm | - | 59 W/m² | - |
| 1777998303 | 16.11° C | 72% | 986.3 hPa | 0 mm | - | 62 W/m² | - |
| 1777998000 | 16.11° C | 71% | 986.2 hPa | 0 mm | - | 49 W/m² | - |
| 1777997696 | 16.11° C | 72% | 986.4 hPa | 0 mm | - | 53 W/m² | - |
| 1777997394 | 16.11° C | 71% | 986.2 hPa | 0 mm | - | 70 W/m² | - |
| 1777997092 | 16.11° C | 72% | 986.4 hPa | 0 mm | - | 71 W/m² | - |
* Rain latest hour (hover to see other rain measurements)
** Current wind speed in m/s (hover to see current wind gust speed)